Theta_e
324 325 325 326 326 327 327 327 327 327 327 326 326 326 326 326 326 325 323 322 320 320 320 320 318 319 317 315 313 313 312 310 307 294 293 292 292 293 292 293 292 292 292
322 323 323 324 324 324 325 325 326 326 326 325 325 324 324 323 323 321 319 318 319 318 316 314 315 312 314 312 311 308 308 307 305 298 290 289 290 291 292 291 290 291 290
319 320 320 321 321 322 323 324 324 324 324 323 322 321 321 320 319 317 316 315 314 314 313 314 312 311 308 306 305 304 301 298 297 293 288 289 288 289 289 291 291 290 289
316 317 316 317 317 318 318 317 317 318 315 312 312 310 310 310 310 308 311 311 310 307 304 304 303 303 304 304 300 298 295 293 293 290 288 288 289 288 290 291 290 291 291
312 314 312 311 309 306 306 306 306 306 306 306 305 304 303 303 301 304 304 307 305 301 300 298 298 293 292 298 299 296 295 292 290 289 288 289 290 288 289 292 291 293 294
305 305 304 304 302 302 302 301 300 301 304 304 302 302 300 297 296 297 301 302 300 298 295 293 296 292 293 293 294 295 297 294 288 291 291 290 288 290 290 291 291 289 288
302 300 300 300 297 297 296 297 297 298 298 298 299 298 297 297 295 296 295 299 297 296 293 292 291 290 293 295 293 293 292 292 293 294 290 292 289 291 291 289 289 288 288
298 297 297 297 295 295 296 296 295 296 296 295 293 293 293 293 294 293 292 294 293 293 292 292 291 291 291 292 292 290 290 290 290 290 291 291 291 291 291 289 288 287 287
296 295 295 296 294 294 293 295 295 293 291 289 289 289 290 290 292 292 291 290 288 288 289 290 291 291 290 290 289 287 288 287 289 289 289 289 289 289 288 288 286 284 284
296 295 295 295 293 293 293 291 290 290 288 288 287 288 287 288 292 292 290 289 288 288 287 288 287 289 289 290 289 287 285 285 286 286 286 286 287 287 287 286 285 283 283
295 294 293 293 292 292 291 290 288 288 287 287 286 287 287 288 290 291 291 290 289 288 287 287 288 290 289 289 288 286 285 286 285 284 284 284 284 285 285 284 283 282 281
293 292 291 289 289 289 288 288 287 287 287 286 286 286 287 288 288 290 290 290 290 287 286 287 289 290 289 289 288 288 287 286 286 286 285 283 282 282 283 283 282 282 282
290 289 288 288 288 288 288 287 288 288 288 286 287 287 287 288 289 289 289 289 288 286 288 289 288 288 286 285 284 284 283 285 284 284 284 283 283 283 282 282 282 281 280
289 288 287 287 287 287 289 289 288 289 289 288 287 287 286 287 287 288 287 287 286 285 285 285 285 283 283 282 282 282 282 282 282 281 281 281 282 281 280 280 278 278 277
289 288 288 288 288 287 289 290 290 290 290 288 287 287 286 285 287 287 286 285 285 284 284 284 284 284 283 283 283 282 283 282 280 280 279 279 279 279 278 279 277 276 275
289 289 289 289 288 288 287 286 288 289 289 289 289 288 286 288 288 286 286 286 285 285 285 284 283 284 283 282 282 281 279 278 278 278 278 277 277 276 276 276 276 275 273
290 290 289 288 288 287 287 286 283 285 287 287 287 288 288 288 288 287 287 286 286 286 284 284 282 282 280 279 278 277 276 275 275 275 275 274 274 274 273 273 273 273 272
289 289 289 288 288 287 287 286 285 284 283 283 286 287 287 288 288 288 286 283 281 281 281 279 278 277 276 275 274 273 273 273 272 272 271 271 271 271 271 271 271 270 269
289 289 289 288 287 286 286 284 284 283 283 282 282 283 285 287 286 284 282 280 277 275 274 274 274 273 272 271 270 270 269 269 268 269 269 268 268 268 268 268 269 267 267
288 288 287 286 285 284 283 281 280 280 279 279 278 276 273 274 277 273 273 274 273 272 271 270 269 269 268 268 268 268 268 268 267 267 266 267 267 267 266 266 266 266 266
287 286 286 284 284 282 281 280 279 278 277 277 276 273 274 276 272 271 270 270 270 269 269 268 267 267 266 266 266 266 266 266 265 265 265 265 264 264 265 265 265 265 265
284 284 284 283 281 280 280 278 277 276 275 273 273 275 274 270 269 268 267 265 265 266 266 267 266 266 266 265 265 265 264 264 264 264 264 263 263 264 264 264 263 264 264
282 282 282 280 279 277 276 276 274 274 273 272 270 268 268 268 267 266 264 263 263 263 262 264 264 262 262 261 262 263 263 263 263 262 261 262 263 263 263 263 263 262 262
281 279 279 276 275 276 274 273 272 270 270 269 268 267 267 266 265 264 263 262 262 262 261 261 261 262 261 261 261 260 260 260 261 260 260 261 261 262 262 262 262 262 261
278 277 276 276 274 273 271 270 269 268 267 267 266 265 264 263 263 263 262 261 261 261 261 260 260 260 259 258 258 259 259 259 258 260 261 260 260 261 261 261 260 260 260
276 276 274 273 271 271 270 268 267 266 265 265 264 264 263 263 262 262 261 260 260 260 260 260 259 258 258 259 259 259 257 260 261 259 262 263 263 262 262 261 260 260 260
Wind_Speed
15 15 15 14 15 14 14 13 13 12 12 12 12 11 11 11 11 10 10 8 9 9 8 9 8 7 4 3 3 3 4 3 4 2 2 3 2 0 3 3 3 3 2
15 14 14 14 14 14 15 14 13 12 11 12 11 10 9 9 9 9 8 6 8 8 6 5 6 2 4 4 3 3 2 1 1 2 1 1 2 2 4 6 5 5 5
12 13 13 13 13 14 13 12 11 11 10 10 8 8 7 7 6 5 5 5 5 4 3 1 1 2 1 1 0 2 2 2 2 3 3 1 1 2 2 3 5 6 5
12 13 12 12 10 9 7 7 6 6 6 5 5 5 5 5 5 5 5 5 5 5 4 4 3 2 1 2 3 4 3 4 3 3 2 1 1 2 1 3 5 5 7
10 11 10 8 8 9 8 7 6 6 6 6 7 6 5 5 4 6 5 5 6 6 4 5 4 3 2 3 4 5 5 3 3 2 3 2 2 2 3 2 4 4 6
9 7 9 10 8 8 8 8 8 7 8 8 7 7 7 3 7 5 6 5 5 5 5 4 5 6 6 6 7 8 6 6 4 3 3 3 3 4 3 3 2 2 3
10 11 11 10 10 8 7 8 8 8 7 7 7 6 6 6 7 6 7 5 5 5 5 5 5 4 6 7 8 9 7 6 2 3 3 3 1 2 1 1 2 2 4
10 10 10 11 12 12 11 10 8 7 7 6 6 6 6 5 8 9 10 6 6 6 6 6 6 5 5 6 7 6 7 8 8 6 7 6 5 3 0 2 2 3 5
10 11 11 12 12 11 11 11 8 8 7 5 5 7 7 5 8 11 10 7 8 7 5 5 6 6 8 6 5 6 7 7 9 11 10 10 9 7 4 1 1 3 4
11 11 11 11 12 12 12 11 7 8 8 7 7 6 6 6 10 11 10 7 9 7 6 6 8 6 8 6 5 5 7 5 5 5 6 7 7 7 5 4 3 5 6
10 10 10 10 12 12 10 8 9 10 10 9 9 6 6 6 7 11 13 6 7 7 6 6 5 12 13 13 10 5 5 6 6 5 3 4 5 4 4 4 4 4 6
11 10 9 9 7 8 11 9 10 11 11 10 10 7 4 4 7 8 10 9 11 9 8 6 7 13 14 14 9 13 11 5 2 1 1 2 4 4 5 3 3 4 5
13 12 10 9 9 9 11 11 9 9 9 9 8 8 7 4 4 9 11 13 12 9 6 12 17 17 17 13 15 12 7 3 2 1 2 3 5 5 5 4 5 4 7
15 14 13 12 10 8 7 8 8 8 8 8 8 8 7 6 5 5 6 9 17 14 15 8 11 12 13 10 7 6 5 4 3 3 3 4 4 4 4 4 5 6 7
14 13 13 10 12 10 7 7 8 6 7 9 7 9 10 8 6 8 9 7 7 9 10 6 6 5 5 5 5 4 4 4 5 4 3 3 3 4 4 4 5 6 6
15 13 13 12 10 9 9 7 11 10 12 7 15 10 3 11 17 16 16 17 18 15 4 5 6 5 5 5 3 4 4 4 4 4 4 4 5 5 5 6 6 6 7
16 16 12 13 12 11 9 10 11 10 15 15 15 13 14 18 18 20 20 19 16 7 7 6 6 5 4 4 4 3 3 4 3 3 4 4 4 4 5 5 6 6 6
13 17 13 13 12 11 10 10 11 11 11 9 12 13 16 17 18 20 21 16 8 8 6 6 6 5 4 3 3 3 3 3 4 3 3 3 4 5 5 5 5 6 7
13 12 12 11 11 12 11 10 10 11 11 10 9 10 12 17 19 17 9 7 8 7 6 6 4 4 3 3 3 3 3 3 3 3 3 3 4 4 4 5 6 6 6
11 14 13 12 12 11 10 10 11 11 11 11 9 9 7 4 5 3 7 8 8 7 6 5 4 3 3 3 3 2 3 2 3 3 3 3 3 3 4 5 5 6 7
9 10 15 12 11 11 10 11 11 10 10 9 9 8 10 7 8 8 8 8 7 6 6 5 4 3 3 3 2 2 2 1 1 1 2 2 3 4 4 4 5 5 6
10 11 11 12 11 11 10 9 11 11 10 10 9 9 15 7 7 8 9 8 7 6 4 4 3 2 2 1 1 1 1 1 1 1 2 2 3 3 4 4 5 6 6
11 12 11 10 11 14 11 10 10 12 11 10 10 9 8 8 8 10 10 7 7 6 3 3 3 2 1 1 1 1 2 2 2 2 3 4 3 3 4 5 5 5 5
11 12 12 11 10 11 11 11 9 12 11 9 10 9 8 7 8 10 9 8 7 5 3 3 2 3 2 3 3 3 4 3 3 4 5 4 4 4 5 6 6 6 5
11 11 12 12 12 11 12 11 11 11 10 8 9 8 9 8 9 9 7 7 6 5 5 3 3 4 5 5 5 6 5 6 6 6 4 5 6 7 6 5 6 6 5
9 12 12 11 11 11 11 11 11 11 10 8 8 8 8 7 8 8 7 6 5 4 4 3 5 6 6 6 8 8 7 9 8 8 6 6 6 5 5 7 7 5 6
Wind_Direction
207 206 203 205 211 213 217 215 213 210 210 211 212 210 213 216 216 218 221 220 213 224 222 224 227 230 211 219 215 215 219 193 242 119 62 52 59 174 141 144 170 188 195
202 199 200 197 201 206 210 212 209 209 204 209 209 211 212 214 215 208 210 203 214 222 218 211 227 214 227 212 214 229 236 226 224 132 95 96 72 173 189 179 186 208 218
190 186 190 192 196 205 208 203 198 201 200 201 198 196 196 200 193 194 199 197 199 197 172 186 347 232 216 104 101 72 74 87 83 141 137 99 132 189 173 209 225 233 236
182 185 183 183 181 183 173 166 165 163 142 129 126 130 142 145 143 137 136 144 137 107 106 108 94 82 118 132 119 129 144 117 109 88 88 99 24 28 286 247 251 250 262
188 179 175 151 135 133 131 124 116 114 117 116 117 108 108 111 123 143 138 142 126 119 98 94 86 74 128 161 147 158 131 116 117 109 107 138 144 159 224 201 244 264 268
153 145 135 138 128 131 128 128 123 120 123 127 121 134 131 116 112 131 134 123 121 136 131 106 94 86 82 81 108 116 134 148 156 162 159 158 189 200 191 208 226 252 271
143 141 144 138 134 128 126 126 127 131 131 127 135 131 113 97 111 116 112 118 129 137 121 108 100 77 88 106 110 113 119 97 95 159 150 176 176 220 115 243 256 254 259
143 143 146 145 143 145 143 140 133 135 136 124 114 105 102 93 110 120 108 107 104 98 109 121 120 124 121 140 130 109 91 59 35 38 38 41 26 16 280 344 325 308 287
162 157 157 154 147 147 143 143 135 130 125 123 125 118 117 116 131 128 117 115 108 101 105 115 122 123 138 143 107 97 85 65 52 58 56 46 31 25 13 343 299 318 297
172 168 158 155 153 153 152 146 136 136 130 125 111 111 115 115 122 137 132 145 132 130 119 105 110 104 106 116 112 115 97 66 57 37 29 25 20 15 25 13 340 305 304
157 157 154 150 154 152 140 135 134 134 127 122 114 111 112 123 136 150 168 155 141 133 123 112 106 107 99 96 100 102 110 120 76 60 32 8 3 8 16 12 358 318 297
146 150 147 141 138 143 140 138 137 135 132 130 125 118 109 96 114 147 151 138 143 128 121 115 110 111 107 99 89 108 102 108 102 70 36 357 337 334 334 331 326 297 281
148 149 144 140 141 146 147 145 141 146 143 142 142 138 135 109 113 132 124 118 104 98 101 109 108 106 100 84 78 73 68 64 42 26 5 356 349 354 334 326 329 309 296
157 154 145 146 140 145 150 150 150 159 156 152 154 145 135 134 144 137 117 107 99 101 107 101 101 103 100 113 98 77 73 55 53 50 23 3 349 337 330 339 326 334 320
157 155 150 153 151 149 164 159 160 166 165 160 155 149 148 159 174 157 142 130 120 121 123 121 126 128 118 110 104 103 77 60 48 34 27 3 343 338 339 346 336 328 314
158 161 160 157 151 150 146 122 81 118 115 121 142 147 105 129 141 140 135 129 131 138 107 118 110 105 101 98 91 90 70 51 40 23 10 353 337 336 336 329 328 323 317
166 162 154 155 149 154 156 146 124 95 103 113 115 122 129 138 142 139 135 133 136 119 113 115 117 109 96 82 83 69 57 40 10 26 8 356 339 320 323 330 325 320 319
166 164 161 156 151 153 157 146 134 135 130 121 114 125 123 136 145 146 134 121 111 85 107 118 116 111 97 95 79 66 52 43 43 18 18 358 349 334 330 328 325 325 327
165 163 159 150 147 150 146 142 135 133 135 129 128 113 118 136 137 133 113 107 114 109 106 97 95 97 93 90 82 71 55 50 35 22 20 5 352 339 333 331 320 320 318
165 161 156 148 145 149 146 149 138 141 144 142 148 135 134 136 165 128 98 107 106 107 108 104 100 107 98 105 101 88 91 65 42 29 6 348 345 328 328 322 326 323 315
157 155 151 140 156 148 153 154 145 149 151 152 145 157 171 153 149 129 117 107 111 112 115 132 133 123 130 119 124 113 96 86 69 6 317 331 325 318 325 313 309 305 309
155 153 156 152 149 148 144 150 150 143 148 139 137 140 141 138 133 117 109 105 99 91 87 108 118 121 112 151 128 121 161 232 258 273 301 289 282 293 299 305 304 307 310
152 154 149 149 144 134 141 148 148 141 143 139 134 141 157 147 134 120 116 115 112 117 116 131 132 138 155 246 262 264 259 265 279 264 259 271 284 296 291 292 297 301 315
155 151 151 141 143 142 145 147 141 137 138 140 140 141 142 137 127 118 120 123 122 122 137 153 169 189 205 231 226 229 230 239 243 250 246 266 277 276 283 289 288 299 302
153 147 148 146 148 147 139 140 143 137 134 140 138 136 137 140 129 120 122 121 124 142 165 187 211 223 236 243 251 258 261 273 259 257 241 239 261 271 269 270 288 299 301
156 147 141 142 140 145 142 143 142 137 139 140 136 140 142 130 117 124 129 131 142 167 182 197 221 226 241 251 249 250 248 253 250 239 251 253 261 266 264 273 274 280 292